Weather History for Marshfield, MA

Change the Weather History Date:

Sunday, January 22, 2012

  Actual Average (KPYM) Record (KPYM)
Temperature  
Mean Temperature 32 °F -  
Max Temperature 33 °F 35 °F 60 °F (1959)
Min Temperature 30 °F 14 °F -17 °F (1984)
Degree Days  
Heating Degree Days 34    
Moisture  
Dew Point 22 °F    
Average Humidity 67    
Maximum Humidity 75    
Minimum Humidity 60    
Precipitation  
Precipitation 0.00 in - - ()
Sea Level Pressure  
Sea Level Pressure 30.50 in    
Wind  
Wind Speed 9 mph (NE)    
Max Wind Speed 15 mph    
Max Gust Speed 22 mph    
Visibility 10 miles    
Events      
Averages and records for this station are not official NWS values.
T = Trace of Precipitation, MM = Missing Value Source: NWS Daily Summary

Daily Weather History Graph

Daily Weather History Graph

Search for Another Location

Airport:

Trip Planner

Search our weather history database for the weather conditions in past years. The results will help you decide how hot, cold, wet, or windy it might be!

Date:

Astronomy

Jan. 22, 2012 Rise Set
Actual Time 7:04 AM EST 4:43 PM EST
Civil Twilight 6:34 AM EST 5:14 PM EST
Nautical Twilight 6:00 AM EST 5:48 PM EST
Astronomical Twilight 5:27 AM EST 6:21 PM EST
Moon 6:19 AM EST (1/22) 4:22 PM EST (1/22)
Length of Visible Light 10h 40m
Length of Day
9h 39m
Waning Crescent, 0% of the Moon is Illuminated
Jan 22
Waning Crescent
Jan 23
New
Jan 30
First Quarter
Feb 7
Full
Feb 14
Last Quarter

Hourly Weather History & Observations

Time (EST) Temp. Windchill Dew Point Humidity Pressure Visibility Wind Dir Wind Speed Gust Speed Precip Events Conditions
12:15 AM 30.2 °F 21.3 °F 21.2 °F 69% 30.32 in 10.0 mi North 10.4 mph 18.4 mph N/A   Overcast
12:35 AM 30.2 °F 21.3 °F 21.2 °F 69% 30.32 in 10.0 mi North 10.4 mph 18.4 mph N/A   Overcast
12:55 AM 30.2 °F 21.3 °F 21.2 °F 69% 30.33 in 10.0 mi North 10.4 mph 21.9 mph N/A   Overcast
1:15 AM 30.2 °F 21.3 °F 21.2 °F 69% 30.34 in 10.0 mi North 10.4 mph 19.6 mph N/A   Overcast
1:35 AM 30.2 °F 20.8 °F 21.2 °F 69% 30.36 in 10.0 mi North 11.5 mph 21.9 mph N/A   Overcast
1:55 AM 30.2 °F 19.8 °F 21.2 °F 69% 30.37 in 10.0 mi NNE 13.8 mph 20.7 mph N/A   Overcast
2:15 AM 30.2 °F 20.8 °F 21.2 °F 69% 30.38 in 10.0 mi North 11.5 mph 19.6 mph N/A   Overcast
2:35 AM 30.2 °F 20.2 °F 21.2 °F 69% 30.38 in 10.0 mi North 12.7 mph 21.9 mph N/A   Overcast
2:55 AM 30.2 °F 22.6 °F 21.2 °F 69% 30.39 in 10.0 mi NNE 8.1 mph 19.6 mph N/A   Overcast
3:15 AM 30.2 °F 20.8 °F 21.2 °F 69% 30.40 in 10.0 mi North 11.5 mph 16.1 mph N/A   Overcast
3:55 AM 30.2 °F 21.9 °F 19.4 °F 64% 30.41 in 10.0 mi NNE 9.2 mph 17.3 mph N/A   Overcast
4:15 AM 30.2 °F 21.3 °F 19.4 °F 64% 30.42 in 10.0 mi NNE 10.4 mph 17.3 mph N/A   Overcast
4:35 AM 30.2 °F 21.9 °F 19.4 °F 64% 30.43 in 10.0 mi North 9.2 mph 17.3 mph N/A   Overcast
4:55 AM 30.2 °F 22.6 °F 19.4 °F 64% 30.43 in 10.0 mi NNE 8.1 mph 18.4 mph N/A   Mostly Cloudy
5:15 AM 30.2 °F 20.8 °F 19.4 °F 64% 30.44 in 10.0 mi North 11.5 mph 17.3 mph N/A   Mostly Cloudy
5:35 AM 30.2 °F 20.8 °F 19.4 °F 64% 30.45 in 10.0 mi NNE 11.5 mph 17.3 mph N/A   Overcast
6:15 AM 30.2 °F 21.9 °F 19.4 °F 64% 30.47 in 10.0 mi NE 9.2 mph - N/A   Mostly Cloudy
6:35 AM 30.2 °F 21.9 °F 19.4 °F 64% 30.48 in 10.0 mi NNE 9.2 mph - N/A   Mostly Cloudy
6:55 AM 30.2 °F 21.3 °F 19.4 °F 64% 30.49 in 10.0 mi NNE 10.4 mph 18.4 mph N/A   Mostly Cloudy
7:15 AM 30.2 °F 22.6 °F 19.4 °F 64% 30.50 in 10.0 mi NNE 8.1 mph 16.1 mph N/A   Mostly Cloudy
7:35 AM 30.2 °F 21.3 °F 19.4 °F 64% 30.51 in 10.0 mi NNE 10.4 mph 16.1 mph N/A   Mostly Cloudy
7:55 AM 30.2 °F 21.3 °F 19.4 °F 64% 30.52 in 10.0 mi NE 10.4 mph 16.1 mph N/A   Mostly Cloudy
8:15 AM 30.2 °F 21.9 °F 19.4 °F 64% 30.53 in 10.0 mi NNE 9.2 mph 18.4 mph N/A   Mostly Cloudy
8:35 AM 30.2 °F 22.6 °F 19.4 °F 64% 30.54 in 10.0 mi NE 8.1 mph 16.1 mph N/A   Mostly Cloudy
8:55 AM 32.0 °F 24.8 °F 19.4 °F 60% 30.55 in 10.0 mi NNE 8.1 mph - N/A   Mostly Cloudy
9:15 AM 32.0 °F 24.2 °F 21.2 °F 64% 30.56 in 10.0 mi NNE 9.2 mph - N/A   Mostly Cloudy
9:35 AM 32.0 °F 21.6 °F 21.2 °F 64% 30.56 in 10.0 mi NE 15.0 mph 19.6 mph N/A   Mostly Cloudy
9:55 AM 32.0 °F 23.0 °F 21.2 °F 64% 30.56 in 10.0 mi NNE 11.5 mph 17.3 mph N/A   Overcast
10:15 AM 32.0 °F 23.6 °F 21.2 °F 64% 30.56 in 10.0 mi NE 10.4 mph 17.3 mph N/A   Mostly Cloudy
10:35 AM 32.0 °F 23.6 °F 21.2 °F 64% 30.57 in 10.0 mi NE 10.4 mph - N/A   Overcast
10:55 AM 32.0 °F 23.0 °F 21.2 °F 64% 30.56 in 10.0 mi NE 11.5 mph 16.1 mph N/A   Overcast
11:15 AM 32.0 °F 24.2 °F 21.2 °F 64% 30.55 in 10.0 mi NNE 9.2 mph - N/A   Overcast
11:55 AM 32.0 °F 24.8 °F 23.0 °F 69% 30.54 in 10.0 mi NE 8.1 mph - N/A   Overcast
12:15 PM 32.0 °F 24.2 °F 23.0 °F 69% 30.53 in 10.0 mi NE 9.2 mph - N/A   Overcast
12:35 PM 32.0 °F 23.6 °F 23.0 °F 69% 30.53 in 10.0 mi ENE 10.4 mph - N/A   Overcast
12:55 PM 32.0 °F 25.6 °F 23.0 °F 69% 30.53 in 10.0 mi NE 6.9 mph - N/A   Overcast
1:35 PM 32.0 °F 24.8 °F 21.2 °F 64% 30.54 in 10.0 mi ENE 8.1 mph - N/A   Mostly Cloudy
1:55 PM 32.0 °F 25.6 °F 21.2 °F 64% 30.54 in 10.0 mi ENE 6.9 mph - N/A   Mostly Cloudy
2:15 PM 32.0 °F 25.6 °F 23.0 °F 69% 30.54 in 10.0 mi NE 6.9 mph - N/A   Overcast
2:35 PM 32.0 °F 24.8 °F 23.0 °F 69% 30.53 in 10.0 mi NE 8.1 mph - N/A   Overcast
2:55 PM 32.0 °F 25.6 °F 23.0 °F 69% 30.54 in 10.0 mi NE 6.9 mph - N/A   Overcast
3:15 PM 32.0 °F 26.4 °F 21.2 °F 64% 30.55 in 10.0 mi ENE 5.8 mph - N/A   Overcast
3:35 PM 32.0 °F 26.4 °F 23.0 °F 69% 30.56 in 10.0 mi NE 5.8 mph - N/A   Overcast
3:55 PM 32.0 °F 27.5 °F 23.0 °F 69% 30.56 in 10.0 mi NE 4.6 mph - N/A   Overcast
4:55 PM 32.0 °F 27.5 °F 23.0 °F 69% 30.56 in 10.0 mi East 4.6 mph - N/A   Overcast
5:15 PM 32.0 °F 26.4 °F 23.0 °F 69% 30.56 in 10.0 mi ENE 5.8 mph - N/A   Overcast
5:35 PM 32.0 °F 27.5 °F 23.0 °F 69% 30.56 in 10.0 mi ENE 4.6 mph - N/A   Overcast
6:15 PM 32.0 °F 27.5 °F 23.0 °F 69% 30.56 in 10.0 mi East 4.6 mph - N/A   Overcast
6:35 PM 32.0 °F 26.4 °F 23.0 °F 69% 30.56 in 10.0 mi ESE 5.8 mph - N/A   Overcast
6:55 PM 32.0 °F 28.7 °F 23.0 °F 69% 30.56 in 10.0 mi East 3.5 mph - N/A   Overcast
7:15 PM 32.0 °F 27.5 °F 23.0 °F 69% 30.55 in 10.0 mi East 4.6 mph - N/A   Overcast
7:35 PM 32.0 °F 27.5 °F 24.8 °F 75% 30.55 in 10.0 mi SE 4.6 mph - N/A   Overcast
7:55 PM 32.0 °F 27.5 °F 24.8 °F 75% 30.55 in 10.0 mi ESE 4.6 mph - N/A   Overcast
8:15 PM 33.8 °F 30.8 °F 24.8 °F 70% 30.56 in 10.0 mi SE 3.5 mph - N/A   Overcast
8:35 PM 33.8 °F - 23.0 °F 65% 30.57 in 10.0 mi Calm Calm - N/A   Overcast
9:15 PM 32.0 °F 28.7 °F 24.8 °F 75% 30.57 in 10.0 mi WSW 3.5 mph - N/A   Overcast
9:35 PM 32.0 °F 28.7 °F 24.8 °F 75% 30.57 in 10.0 mi WNW 3.5 mph - N/A   Overcast
9:55 PM 32.0 °F - 24.8 °F 75% 30.57 in 10.0 mi Calm Calm - N/A   Overcast
10:15 PM 32.0 °F 28.7 °F 24.8 °F 75% 30.56 in 10.0 mi West 3.5 mph - N/A   Overcast
10:35 PM 32.0 °F - 24.8 °F 75% 30.55 in 9.0 mi Calm Calm - N/A   Overcast
10:55 PM 32.0 °F - 26.6 °F 80% 30.55 in 10.0 mi Calm Calm - N/A   Overcast
11:15 PM 32.0 °F - 26.6 °F 80% 30.54 in 10.0 mi Calm Calm - N/A   Overcast
11:35 PM 32.0 °F - 24.8 °F 75% 30.53 in 10.0 mi Calm Calm - N/A   Overcast
11:55 PM 32.0 °F - 26.6 °F 80% 30.53 in 10.0 mi Calm Calm - N/A   Overcast